Dobrodošli na spletni strani vremenske postaje Senovo. Vse informacije so informativnega značaja, saj vremenska postaja ni del državne mreže meteoroloških postaj. OBVESTILO: Letni količini padavin navedeni na spletni strani je potrebno prišteti 98,1 mm, zaradi izgube podatkov.


Posebna pozornost v zvezi z vremenskimi dogajanji ni potrebna.    Posebna pozornost v zvezi z vremenskimi dogajanji ni potrebna.

Pogled proti Armezu več informacij Pogled proti Armezu


Lisca več informacij Lisca


Radar strel več informacij blitzortung!


Radar padavin več informacij rain snow radar


Obiščite še:

Template documentation
and downloads

And another site



Weather Underground, zgodovina - Tekstovno

Dnevni povzetek za Avgust 13, 2017 Enote:  Metrično    Angleško   Obe
« Predhodni Dan
Naslednji Dan »
Dnevni Tedenski Mesečni Letni Po meri
  Višja: Nižja: Povprečje:
Temperatura: 27.7 °C 12.1 °C 19.1 °C
Točka rosišča: 16.7 °C 11.5 °C 13.6 °C
Vlažnost: 97 % 42 % 74 %
Hitrost vetra: 7.7 km/h 0.0 km/h 2 km/h
Sunki vetra: 16.9 km/h - -
Veter:- - SSE
Zračni tlak: 1021.9 hPa 1016.8 hPa -
Padavine: 0.0 mm    
Historical Graphs
 
 
Tabelarni podarki za Avgust 13, 2017
Čas Temperatura Točka rosišča Zračni tlak Veter Hitrost vetra Sunki vetra Vlažnost Intenziteta padavin (urna)
00:04 15.4 °C 14.3 °C 1018.2 hPa North 0.2 km/h 2.1 km/h 93 % 0.0 mm
00:09 15.4 °C 14.3 °C 1018.2 hPa Calm   2.6 km/h 93 % 0.0 mm
00:14 15.3 °C 14.2 °C 1018.2 hPa Calm   2.6 km/h 93 % 0.0 mm
00:19 15.3 °C 14.2 °C 1018.2 hPa Calm   1.4 km/h 93 % 0.0 mm
00:24 15.2 °C 14.1 °C 1018.2 hPa Calm   1.4 km/h 93 % 0.0 mm
00:29 15.2 °C 14.1 °C 1018.2 hPa Calm     93 % 0.0 mm
00:34 15.1 °C 14.0 °C 1018.8 hPa Calm     93 % 0.0 mm
00:39 15.1 °C 14.0 °C 1018.8 hPa NNW 0.5 km/h 3.5 km/h 93 % 0.0 mm
00:44 15.1 °C 14.0 °C 1018.8 hPa NNW 1.0 km/h 3.5 km/h 93 % 0.0 mm
00:49 15.0 °C 13.9 °C 1018.2 hPa NNW 0.8 km/h 2.6 km/h 93 % 0.0 mm
00:54 14.9 °C 13.9 °C 1018.2 hPa NNW 0.3 km/h 2.1 km/h 94 % 0.0 mm
00:59 14.9 °C 13.9 °C 1018.2 hPa Calm     94 % 0.0 mm
01:04 14.7 °C 13.7 °C 1018.2 hPa Calm     94 % 0.0 mm
01:09 14.7 °C 13.7 °C 1018.2 hPa Calm     94 % 0.0 mm
01:14 14.6 °C 13.7 °C 1018.2 hPa Calm     94 % 0.0 mm
01:19 14.5 °C 13.6 °C 1018.2 hPa North 0.2 km/h 3.2 km/h 94 % 0.0 mm
01:24 14.4 °C 13.4 °C 1018.2 hPa North 0.3 km/h 3.2 km/h 94 % 0.0 mm
01:25 14.4 °C 13.4 °C 1018.2 hPa North 0.3 km/h 3.2 km/h 94 % 0.0 mm
01:30 14.4 °C 13.4 °C 1018.2 hPa Calm     94 % 0.0 mm
01:35 14.2 °C 13.2 °C 1018.2 hPa Calm     94 % 0.0 mm
01:40 14.2 °C 13.2 °C 1018.2 hPa NNW 0.2 km/h 3.5 km/h 94 % 0.0 mm
01:45 14.1 °C 13.2 °C 1018.2 hPa NNW 0.3 km/h 3.5 km/h 94 % 0.0 mm
01:50 14.1 °C 13.2 °C 1018.2 hPa Calm     94 % 0.0 mm
01:55 14.0 °C 13.1 °C 1018.2 hPa Calm     94 % 0.0 mm
02:00 14.0 °C 13.1 °C 1018.2 hPa Calm     94 % 0.0 mm
02:05 13.9 °C 12.9 °C 1018.8 hPa Calm     94 % 0.0 mm
02:10 13.8 °C 12.8 °C 1018.8 hPa NNW 0.3 km/h 4.0 km/h 94 % 0.0 mm
02:15 13.8 °C 13.0 °C 1018.8 hPa NNW 0.5 km/h 4.0 km/h 95 % 0.0 mm
02:20 13.8 °C 13.0 °C 1018.8 hPa NNW 0.2 km/h 2.6 km/h 95 % 0.0 mm
02:25 13.7 °C 12.9 °C 1018.8 hPa Calm     95 % 0.0 mm
02:30 13.7 °C 12.9 °C 1018.8 hPa Calm     95 % 0.0 mm
02:35 13.7 °C 12.9 °C 1018.2 hPa Calm     95 % 0.0 mm
02:40 13.7 °C 12.9 °C 1018.2 hPa Calm   2.1 km/h 95 % 0.0 mm
02:45 13.7 °C 12.9 °C 1018.2 hPa Calm   2.1 km/h 95 % 0.0 mm
02:50 13.6 °C 12.8 °C 1018.2 hPa Calm     95 % 0.0 mm
02:55 13.6 °C 12.8 °C 1018.2 hPa Calm     95 % 0.0 mm
03:00 13.5 °C 12.7 °C 1018.2 hPa Calm     95 % 0.0 mm
03:05 13.5 °C 12.7 °C 1018.8 hPa Calm     95 % 0.0 mm
03:10 13.5 °C 12.7 °C 1018.8 hPa Calm   2.1 km/h 95 % 0.0 mm
03:15 13.5 °C 12.7 °C 1018.8 hPa Calm   2.1 km/h 95 % 0.0 mm
03:20 13.5 °C 12.7 °C 1018.2 hPa SSE 0.2 km/h 2.6 km/h 95 % 0.0 mm
03:25 13.4 °C 12.6 °C 1018.2 hPa SSE 0.2 km/h 2.6 km/h 95 % 0.0 mm
03:30 13.4 °C 12.6 °C 1018.2 hPa NNW 0.2 km/h 2.6 km/h 95 % 0.0 mm
03:35 13.3 °C 12.5 °C 1018.2 hPa NNW 0.2 km/h 2.6 km/h 95 % 0.0 mm
03:40 13.3 °C 12.5 °C 1018.2 hPa Calm     95 % 0.0 mm
03:45 13.3 °C 12.5 °C 1018.2 hPa Calm     95 % 0.0 mm
03:50 13.3 °C 12.5 °C 1018.8 hPa WSW 0.2 km/h 2.6 km/h 95 % 0.0 mm
03:55 13.3 °C 12.7 °C 1018.8 hPa WSW 0.3 km/h 2.6 km/h 96 % 0.0 mm
04:00 13.2 °C 12.6 °C 1018.8 hPa WSW 0.3 km/h 2.1 km/h 96 % 0.0 mm
04:05 13.2 °C 12.4 °C 1018.8 hPa Calm     95 % 0.0 mm
04:10 13.2 °C 12.6 °C 1018.8 hPa Calm     96 % 0.0 mm
04:15 13.2 °C 12.6 °C 1018.8 hPa Calm     96 % 0.0 mm
04:20 13.1 °C 12.5 °C 1018.8 hPa Calm     96 % 0.0 mm
04:25 13.1 °C 12.5 °C 1018.8 hPa Calm     96 % 0.0 mm
04:30 13.1 °C 12.5 °C 1018.8 hPa Calm     96 % 0.0 mm
04:35 13.1 °C 12.5 °C 1016.8 hPa Calm     96 % 0.0 mm
04:40 13.0 °C 12.4 °C 1016.8 hPa Calm     96 % 0.0 mm
04:45 13.0 °C 12.4 °C 1016.8 hPa Calm     96 % 0.0 mm
04:50 13.0 °C 12.4 °C 1016.8 hPa Calm   3.2 km/h 96 % 0.0 mm
04:56 12.9 °C 12.3 °C 1016.8 hPa WSW 0.3 km/h 3.2 km/h 96 % 0.0 mm
05:01 12.9 °C 12.3 °C 1016.8 hPa WSW 0.5 km/h 2.6 km/h 96 % 0.0 mm
05:06 12.9 °C 12.3 °C 1016.8 hPa WSW 0.3 km/h 2.1 km/h 96 % 0.0 mm
05:11 12.8 °C 12.2 °C 1016.8 hPa Calm     96 % 0.0 mm
05:16 12.8 °C 12.2 °C 1016.8 hPa Calm     96 % 0.0 mm
05:19 12.7 °C 12.1 °C 1018.2 hPa Calm     96 % 0.0 mm
05:21 12.7 °C 12.1 °C 1018.2 hPa Calm     96 % 0.0 mm
05:26 12.6 °C 12.0 °C 1018.2 hPa Calm     96 % 0.0 mm
05:29 12.6 °C 12.0 °C 1018.2 hPa Calm     96 % 0.0 mm
05:30 12.6 °C 12.0 °C 1018.2 hPa Calm     96 % 0.0 mm
05:35 12.5 °C 11.9 °C 1016.8 hPa Calm     96 % 0.0 mm
05:40 12.5 °C 11.9 °C 1016.8 hPa Calm     96 % 0.0 mm
05:45 12.4 °C 11.8 °C 1016.8 hPa WSW 0.2 km/h 2.1 km/h 96 % 0.0 mm
05:50 12.4 °C 11.8 °C 1016.8 hPa WSW 0.2 km/h 2.1 km/h 96 % 0.0 mm
05:51 12.4 °C 11.8 °C 1016.8 hPa WSW 0.2 km/h 2.1 km/h 96 % 0.0 mm
05:56 12.3 °C 11.7 °C 1016.8 hPa Calm     96 % 0.0 mm
06:01 12.3 °C 11.7 °C 1016.8 hPa Calm     96 % 0.0 mm
06:06 12.2 °C 11.6 °C 1016.8 hPa Calm     96 % 0.0 mm
06:11 12.2 °C 11.6 °C 1016.8 hPa Calm     96 % 0.0 mm
06:16 12.2 °C 11.6 °C 1016.8 hPa Calm     96 % 0.0 mm
06:21 12.2 °C 11.6 °C 1018.2 hPa Calm     96 % 0.0 mm
06:26 12.2 °C 11.6 °C 1018.2 hPa Calm     96 % 0.0 mm
06:31 12.2 °C 11.6 °C 1018.2 hPa Calm   2.6 km/h 96 % 0.0 mm
06:36 12.2 °C 11.6 °C 1018.2 hPa North 0.3 km/h 4.0 km/h 96 % 0.0 mm
06:41 12.2 °C 11.6 °C 1018.2 hPa North 0.6 km/h 4.0 km/h 96 % 0.0 mm
06:46 12.2 °C 11.6 °C 1018.2 hPa NNW 0.3 km/h 3.2 km/h 96 % 0.0 mm
06:51 12.2 °C 11.6 °C 1018.2 hPa NE 0.3 km/h 1.8 km/h 96 % 0.0 mm
06:56 12.2 °C 11.6 °C 1018.2 hPa NE 0.3 km/h 1.8 km/h 96 % 0.0 mm
07:01 12.2 °C 11.6 °C 1018.2 hPa Calm     96 % 0.0 mm
07:06 12.1 °C 11.5 °C 1018.2 hPa Calm     96 % 0.0 mm
07:11 12.2 °C 11.6 °C 1018.2 hPa Calm     96 % 0.0 mm
07:16 12.2 °C 11.6 °C 1018.2 hPa Calm     96 % 0.0 mm
07:21 12.3 °C 11.7 °C 1018.2 hPa Calm     96 % 0.0 mm
07:26 12.4 °C 11.8 °C 1018.2 hPa Calm     96 % 0.0 mm
07:31 12.5 °C 12.1 °C 1018.2 hPa Calm     97 % 0.0 mm
07:36 12.8 °C 12.3 °C 1018.2 hPa Calm     97 % 0.0 mm
07:41 13.0 °C 12.4 °C 1018.2 hPa Calm     96 % 0.0 mm
07:43 13.0 °C 12.4 °C 1018.2 hPa Calm   2.1 km/h 96 % 0.0 mm
07:48 13.2 °C 12.7 °C 1018.2 hPa Calm   2.1 km/h 97 % 0.0 mm
07:53 13.3 °C 12.8 °C 1018.2 hPa ENE 0.5 km/h 4.3 km/h 97 % 0.0 mm
07:58 13.5 °C 13.1 °C 1018.2 hPa ENE 1.4 km/h 4.3 km/h 97 % 0.0 mm
08:03 13.6 °C 13.1 °C 1018.8 hPa ENE 1.3 km/h 3.5 km/h 97 % 0.0 mm
08:08 13.7 °C 13.2 °C 1018.8 hPa East 0.3 km/h 2.1 km/h 97 % 0.0 mm
08:13 13.9 °C 13.4 °C 1018.8 hPa Calm     97 % 0.0 mm
08:18 14.1 °C 13.6 °C 1018.2 hPa East 0.2 km/h 3.2 km/h 97 % 0.0 mm
08:23 14.4 °C 13.8 °C 1018.2 hPa East 0.5 km/h 3.2 km/h 96 % 0.0 mm
08:28 14.6 °C 13.9 °C 1018.2 hPa East 1.1 km/h 3.2 km/h 96 % 0.0 mm
08:33 14.8 °C 14.2 °C 1018.8 hPa ENE 1.0 km/h 3.2 km/h 96 % 0.0 mm
08:38 15.1 °C 14.3 °C 1018.8 hPa SE 1.8 km/h 5.5 km/h 95 % 0.0 mm
08:43 15.7 °C 14.9 °C 1018.8 hPa SE 1.9 km/h 5.5 km/h 95 % 0.0 mm
08:48 16.2 °C 15.4 °C 1018.8 hPa ESE 1.4 km/h 4.3 km/h 95 % 0.0 mm
08:53 16.3 °C 15.3 °C 1018.8 hPa ESE 1.9 km/h 4.3 km/h 94 % 0.0 mm
08:58 16.6 °C 15.4 °C 1018.8 hPa ESE 2.1 km/h 5.0 km/h 93 % 0.0 mm
09:03 16.7 °C 15.6 °C 1018.8 hPa ESE 2.4 km/h 5.0 km/h 93 % 0.0 mm
09:08 16.9 °C 15.6 °C 1018.8 hPa ESE 1.9 km/h 4.7 km/h 92 % 0.0 mm
09:10 17.0 °C 15.5 °C 1018.8 hPa ESE 1.9 km/h 4.7 km/h 91 % 0.0 mm
09:15 17.2 °C 15.7 °C 1018.8 hPa ESE 1.1 km/h 4.7 km/h 91 % 0.0 mm
09:20 17.3 °C 15.4 °C 1018.8 hPa East 0.3 km/h 3.2 km/h 89 % 0.0 mm
09:25 17.4 °C 15.6 °C 1018.8 hPa SE 0.5 km/h 4.7 km/h 89 % 0.0 mm
09:30 17.6 °C 15.6 °C 1018.8 hPa SE 0.6 km/h 4.7 km/h 88 % 0.0 mm
09:35 18.0 °C 15.8 °C 1018.8 hPa South 0.8 km/h 5.5 km/h 87 % 0.0 mm
09:40 18.2 °C 15.6 °C 1018.8 hPa SSE 1.6 km/h 5.5 km/h 85 % 0.0 mm
09:45 18.6 °C 16.2 °C 1018.8 hPa ESE 2.3 km/h 5.0 km/h 86 % 0.0 mm
09:50 19.0 °C 16.2 °C 1018.8 hPa ESE 2.3 km/h 5.0 km/h 84 % 0.0 mm
09:55 19.4 °C 16.2 °C 1018.8 hPa ESE 2.1 km/h 5.0 km/h 82 % 0.0 mm
10:00 19.8 °C 16.6 °C 1018.8 hPa ESE 2.1 km/h 5.0 km/h 82 % 0.0 mm
10:05 20.1 °C 16.2 °C 1018.8 hPa ESE 2.7 km/h 6.4 km/h 78 % 0.0 mm
10:10 20.4 °C 16.6 °C 1018.8 hPa ESE 3.2 km/h 6.4 km/h 79 % 0.0 mm
10:15 20.7 °C 16.7 °C 1018.8 hPa ESE 3.2 km/h 7.9 km/h 78 % 0.0 mm
10:20 21.1 °C 16.7 °C 1018.8 hPa SE 4.0 km/h 9.3 km/h 76 % 0.0 mm
10:21 21.1 °C 16.7 °C 1018.8 hPa SE 4.0 km/h 9.3 km/h 76 % 0.0 mm
10:26 21.4 °C 16.6 °C 1018.8 hPa ESE 2.7 km/h 7.9 km/h 74 % 0.0 mm
10:31 21.7 °C 16.7 °C 1018.8 hPa SE 2.1 km/h 6.4 km/h 73 % 0.0 mm
10:36 21.7 °C 16.2 °C 1019.9 hPa ESE 2.4 km/h 6.4 km/h 71 % 0.0 mm
10:41 22.0 °C 16.3 °C 1019.9 hPa ESE 2.4 km/h 6.4 km/h 70 % 0.0 mm
10:46 22.3 °C 16.3 °C 1019.9 hPa SE 3.9 km/h 10.5 km/h 69 % 0.0 mm
10:51 22.6 °C 16.4 °C 1018.8 hPa SSE 4.3 km/h 10.5 km/h 68 % 0.0 mm
10:56 22.8 °C 16.3 °C 1018.8 hPa SSE 4.7 km/h 7.9 km/h 67 % 0.0 mm
11:01 23.1 °C 15.9 °C 1018.8 hPa SSE 4.2 km/h 7.9 km/h 64 % 0.0 mm
11:06 23.3 °C 15.6 °C 1018.8 hPa SSE 3.2 km/h 7.6 km/h 62 % 0.0 mm
11:11 23.4 °C 15.2 °C 1018.8 hPa SSE 3.4 km/h 9.0 km/h 60 % 0.0 mm
11:16 23.6 °C 15.4 °C 1018.8 hPa SSE 4.3 km/h 9.0 km/h 60 % 0.0 mm
11:21 23.8 °C 15.1 °C 1018.8 hPa SSE 4.3 km/h 8.7 km/h 58 % 0.0 mm
11:26 23.9 °C 14.0 °C 1018.8 hPa North 5.1 km/h 10.5 km/h 54 % 0.0 mm
11:31 24.1 °C 14.2 °C 1018.8 hPa East 7.4 km/h 16.3 km/h 54 % 0.0 mm
11:36 24.2 °C 13.4 °C 1018.8 hPa ESE 7.6 km/h 16.3 km/h 51 % 0.0 mm
11:41 24.3 °C 12.9 °C 1018.8 hPa East 5.5 km/h 13.0 km/h 49 % 0.0 mm
11:46 24.5 °C 14.0 °C 1018.8 hPa East 4.5 km/h 10.1 km/h 52 % 0.0 mm
11:51 24.7 °C 13.6 °C 1018.8 hPa ESE 5.3 km/h 12.2 km/h 50 % 0.0 mm
11:56 24.8 °C 14.0 °C 1018.8 hPa ESE 5.5 km/h 12.2 km/h 51 % 0.0 mm
12:01 25.0 °C 13.8 °C 1018.8 hPa SE 5.8 km/h 14.0 km/h 50 % 0.0 mm
12:06 25.1 °C 13.6 °C 1018.8 hPa SE 7.6 km/h 14.0 km/h 49 % 0.0 mm
12:11 25.2 °C 13.7 °C 1018.8 hPa ESE 7.4 km/h 14.0 km/h 49 % 0.0 mm
12:16 25.4 °C 13.9 °C 1018.8 hPa ESE 6.6 km/h 14.0 km/h 49 % 0.0 mm
12:21 25.3 °C 13.5 °C 1018.8 hPa ESE 6.6 km/h 11.9 km/h 48 % 0.0 mm
12:26 25.4 °C 13.9 °C 1018.8 hPa ESE 6.8 km/h 16.6 km/h 49 % 0.0 mm
12:31 25.4 °C 13.6 °C 1018.8 hPa ESE 6.9 km/h 16.6 km/h 48 % 0.0 mm
12:36 25.7 °C 13.6 °C 1018.8 hPa ESE 6.6 km/h 12.2 km/h 47 % 0.0 mm
12:41 26.0 °C 14.1 °C 1018.8 hPa SE 5.6 km/h 11.9 km/h 48 % 0.0 mm
12:46 26.1 °C 14.2 °C 1018.8 hPa SE 6.3 km/h 16.9 km/h 48 % 0.0 mm
12:51 26.0 °C 13.8 °C 1018.8 hPa SE 6.4 km/h 16.9 km/h 47 % 0.0 mm
12:56 25.7 °C 13.6 °C 1018.8 hPa ESE 6.9 km/h 12.2 km/h 47 % 0.0 mm
13:01 25.5 °C 13.3 °C 1018.8 hPa ESE 7.7 km/h 13.7 km/h 47 % 0.0 mm
13:06 25.6 °C 13.4 °C 1018.8 hPa ESE 5.8 km/h 13.7 km/h 47 % 0.0 mm
13:11 25.6 °C 13.4 °C 1018.8 hPa ESE 6.4 km/h 11.9 km/h 47 % 0.0 mm
13:16 25.4 °C 13.3 °C 1018.8 hPa ESE 6.6 km/h 10.5 km/h 47 % 0.0 mm
13:21 25.7 °C 13.9 °C 1018.8 hPa ESE 5.6 km/h 10.5 km/h 48 % 0.0 mm
13:26 25.5 °C 13.1 °C 1018.8 hPa ESE 6.1 km/h 11.6 km/h 46 % 0.0 mm
13:31 25.2 °C 13.1 °C 1018.8 hPa East 4.8 km/h 11.6 km/h 47 % 0.0 mm
13:36 25.3 °C 13.2 °C 1018.2 hPa East 3.2 km/h 7.6 km/h 47 % 0.0 mm
13:41 25.6 °C 13.4 °C 1018.2 hPa East 3.2 km/h 9.3 km/h 47 % 0.0 mm
13:46 25.9 °C 13.7 °C 1018.2 hPa ESE 5.6 km/h 11.6 km/h 47 % 0.0 mm
13:51 26.1 °C 13.9 °C 1018.2 hPa ESE 7.2 km/h 14.0 km/h 47 % 0.0 mm
13:56 25.8 °C 13.3 °C 1018.2 hPa East 6.0 km/h 14.0 km/h 46 % 0.0 mm
14:01 26.0 °C 13.5 °C 1018.2 hPa ENE 5.0 km/h 12.6 km/h 46 % 0.0 mm
14:06 26.1 °C 13.2 °C 1018.2 hPa NE 5.1 km/h 12.6 km/h 45 % 0.0 mm
14:11 26.3 °C 13.4 °C 1018.2 hPa ENE 5.1 km/h 9.7 km/h 45 % 0.0 mm
14:16 26.4 °C 13.5 °C 1018.2 hPa ENE 6.1 km/h 11.9 km/h 45 % 0.0 mm
14:21 26.1 °C 12.9 °C 1018.2 hPa East 7.6 km/h 16.9 km/h 44 % 0.0 mm
14:26 25.9 °C 13.1 °C 1018.2 hPa East 7.7 km/h 16.9 km/h 45 % 0.0 mm
14:31 25.7 °C 12.9 °C 1018.2 hPa East 5.5 km/h 15.8 km/h 45 % 0.0 mm
14:36 25.6 °C 13.1 °C 1018.2 hPa East 3.7 km/h 9.0 km/h 46 % 0.0 mm
14:41 25.6 °C 12.8 °C 1018.2 hPa ENE 4.0 km/h 9.0 km/h 45 % 0.0 mm
14:46 26.0 °C 13.2 °C 1018.2 hPa ENE 3.4 km/h 9.0 km/h 45 % 0.0 mm
14:48 26.1 °C 13.2 °C 1018.2 hPa ENE 3.2 km/h 9.0 km/h 45 % 0.0 mm
14:53 26.4 °C 13.5 °C 1018.2 hPa ENE 4.0 km/h 12.6 km/h 45 % 0.0 mm
14:58 26.5 °C 13.3 °C 1018.2 hPa East 6.1 km/h 12.6 km/h 44 % 0.0 mm
15:03 26.6 °C 13.7 °C 1016.8 hPa ESE 6.0 km/h 11.9 km/h 45 % 0.0 mm
15:08 26.8 °C 13.5 °C 1016.8 hPa SE 4.3 km/h 13.7 km/h 44 % 0.0 mm
15:13 27.1 °C 13.8 °C 1016.8 hPa West 5.8 km/h 15.8 km/h 44 % 0.0 mm
15:18 27.2 °C 13.9 °C 1018.2 hPa West 6.6 km/h 16.3 km/h 44 % 0.0 mm
15:23 27.2 °C 13.9 °C 1018.2 hPa ESE 6.3 km/h 16.3 km/h 44 % 0.0 mm
15:28 27.1 °C 13.8 °C 1018.2 hPa ESE 5.8 km/h 14.0 km/h 44 % 0.0 mm
15:33 26.9 °C 13.6 °C 1018.2 hPa ESE 4.5 km/h 8.7 km/h 44 % 0.0 mm
15:38 26.5 °C 13.3 °C 1018.2 hPa East 4.3 km/h 8.7 km/h 44 % 0.0 mm
15:43 26.5 °C 13.3 °C 1018.2 hPa East 3.5 km/h 8.7 km/h 44 % 0.0 mm
15:48 26.3 °C 13.1 °C 1016.8 hPa ESE 3.2 km/h 6.9 km/h 44 % 0.0 mm
15:53 26.3 °C 13.1 °C 1016.8 hPa SE 4.7 km/h 10.5 km/h 44 % 0.0 mm
15:58 26.8 °C 13.9 °C 1016.8 hPa SSE 5.1 km/h 10.5 km/h 45 % 0.0 mm
16:03 27.0 °C 13.3 °C 1016.8 hPa SE 6.0 km/h 10.5 km/h 43 % 0.0 mm
16:08 27.3 °C 14.0 °C 1016.8 hPa ESE 5.5 km/h 10.5 km/h 44 % 0.0 mm
16:13 27.4 °C 14.1 °C 1016.8 hPa East 4.0 km/h 10.1 km/h 44 % 0.0 mm
16:18 27.4 °C 14.1 °C 1016.8 hPa ESE 4.3 km/h 10.1 km/h 44 % 0.0 mm
16:23 27.5 °C 14.2 °C 1016.8 hPa ESE 3.1 km/h 7.6 km/h 44 % 0.0 mm
16:28 27.5 °C 13.8 °C 1016.8 hPa East 2.7 km/h 7.6 km/h 43 % 0.0 mm
16:33 27.7 °C 14.0 °C 1016.8 hPa ENE 2.7 km/h 6.9 km/h 43 % 0.0 mm
16:38 27.6 °C 13.6 °C 1018.2 hPa East 2.7 km/h 10.1 km/h 42 % 0.0 mm
16:43 27.2 °C 13.6 °C 1018.2 hPa East 4.5 km/h 10.5 km/h 43 % 0.0 mm
16:48 26.9 °C 13.3 °C 1018.2 hPa ESE 5.1 km/h 10.5 km/h 43 % 0.0 mm
16:53 26.7 °C 13.4 °C 1018.2 hPa ESE 3.7 km/h 9.3 km/h 44 % 0.0 mm
16:58 26.9 °C 13.6 °C 1018.2 hPa ESE 4.3 km/h 12.6 km/h 44 % 0.0 mm
17:03 27.2 °C 13.6 °C 1018.2 hPa ESE 4.7 km/h 12.6 km/h 43 % 0.0 mm
17:08 27.4 °C 13.7 °C 1016.8 hPa ESE 4.3 km/h 11.1 km/h 43 % 0.0 mm
17:13 27.1 °C 13.1 °C 1016.8 hPa ESE 4.8 km/h 11.1 km/h 42 % 0.0 mm
17:18 27.2 °C 13.6 °C 1016.8 hPa East 4.0 km/h 10.1 km/h 43 % 0.0 mm
17:23 27.1 °C 13.4 °C 1016.8 hPa ENE 4.2 km/h 9.7 km/h 43 % 0.0 mm
17:28 27.2 °C 13.6 °C 1016.8 hPa ENE 3.4 km/h 9.7 km/h 43 % 0.0 mm
17:33 27.3 °C 14.0 °C 1018.2 hPa East 2.3 km/h 5.8 km/h 44 % 0.0 mm
17:38 27.5 °C 13.8 °C 1018.2 hPa ESE 3.4 km/h 7.9 km/h 43 % 0.0 mm
17:43 27.5 °C 13.8 °C 1018.2 hPa SE 3.9 km/h 9.0 km/h 43 % 0.0 mm
17:48 27.5 °C 13.8 °C 1016.8 hPa SE 3.7 km/h 10.1 km/h 43 % 0.0 mm
17:53 27.3 °C 13.6 °C 1016.8 hPa East 3.9 km/h 10.1 km/h 43 % 0.0 mm
17:58 26.8 °C 13.2 °C 1016.8 hPa ENE 5.0 km/h 10.5 km/h 43 % 0.0 mm
18:03 26.5 °C 12.9 °C 1016.8 hPa ENE 4.8 km/h 10.5 km/h 43 % 0.0 mm
18:08 26.2 °C 12.6 °C 1016.8 hPa ENE 3.9 km/h 8.7 km/h 43 % 0.0 mm
18:13 25.9 °C 12.3 °C 1016.8 hPa ENE 3.5 km/h 8.7 km/h 43 % 0.0 mm
18:18 25.7 °C 12.6 °C 1018.2 hPa ENE 4.0 km/h 8.7 km/h 44 % 0.0 mm
18:23 25.5 °C 12.3 °C 1018.2 hPa ESE 4.3 km/h 7.6 km/h 44 % 0.0 mm
18:28 25.3 °C 12.5 °C 1018.2 hPa ESE 4.7 km/h 9.3 km/h 45 % 0.0 mm
18:33 25.1 °C 12.3 °C 1018.2 hPa ESE 5.3 km/h 9.3 km/h 45 % 0.0 mm
18:38 25.0 °C 12.2 °C 1018.2 hPa ESE 4.8 km/h 8.7 km/h 45 % 0.0 mm
18:43 24.8 °C 12.4 °C 1018.2 hPa SE 3.5 km/h 7.9 km/h 46 % 0.0 mm
18:46 24.7 °C 12.6 °C 1018.2 hPa ESE 2.7 km/h 7.9 km/h 47 % 0.0 mm
18:51 24.4 °C 12.7 °C 1018.2 hPa SE 2.6 km/h 6.1 km/h 48 % 0.0 mm
18:56 24.2 °C 12.5 °C 1018.2 hPa ESE 2.9 km/h 9.0 km/h 48 % 0.0 mm
19:01 23.8 °C 13.3 °C 1018.2 hPa East 3.7 km/h 9.0 km/h 52 % 0.0 mm
19:06 23.5 °C 13.7 °C 1018.2 hPa East 1.6 km/h 4.7 km/h 54 % 0.0 mm
19:11 23.3 °C 14.1 °C 1018.2 hPa East 0.5 km/h 4.3 km/h 56 % 0.0 mm
19:16 22.8 °C 14.1 °C 1018.2 hPa NNW 0.6 km/h 3.5 km/h 58 % 0.0 mm
19:21 22.4 °C 14.3 °C 1018.8 hPa NNW 1.1 km/h 3.5 km/h 60 % 0.0 mm
19:26 22.1 °C 14.5 °C 1018.8 hPa NNW 1.0 km/h 5.0 km/h 62 % 0.0 mm
19:31 21.8 °C 14.7 °C 1018.8 hPa NNW 0.5 km/h 5.0 km/h 64 % 0.0 mm
19:36 21.6 °C 14.7 °C 1018.8 hPa Calm     65 % 0.0 mm
19:41 21.3 °C 14.7 °C 1018.8 hPa North 0.2 km/h 2.6 km/h 66 % 0.0 mm
19:46 21.0 °C 14.6 °C 1018.8 hPa NNW 0.5 km/h 2.6 km/h 67 % 0.0 mm
19:51 20.8 °C 14.7 °C 1018.8 hPa NW 0.3 km/h 2.6 km/h 68 % 0.0 mm
19:56 20.6 °C 14.5 °C 1018.8 hPa NW 0.5 km/h 4.0 km/h 68 % 0.0 mm
20:01 20.4 °C 14.7 °C 1018.8 hPa NW 1.0 km/h 4.3 km/h 70 % 0.0 mm
20:06 20.2 °C 14.6 °C 1018.8 hPa NNW 1.3 km/h 4.3 km/h 70 % 0.0 mm
20:11 20.0 °C 14.6 °C 1018.8 hPa NNW 0.8 km/h 3.5 km/h 71 % 0.0 mm
20:16 19.8 °C 14.6 °C 1018.8 hPa NNW 0.2 km/h 2.1 km/h 72 % 0.0 mm
20:21 19.6 °C 14.4 °C 1019.9 hPa Calm   1.8 km/h 72 % 0.0 mm
20:26 19.4 °C 14.7 °C 1019.9 hPa NNW 0.2 km/h 2.6 km/h 74 % 0.0 mm
20:31 19.3 °C 14.8 °C 1019.9 hPa NW 0.2 km/h 2.6 km/h 75 % 0.0 mm
20:36 19.1 °C 14.6 °C 1019.9 hPa Calm     75 % 0.0 mm
20:41 18.9 °C 14.8 °C 1019.9 hPa NW 0.2 km/h 2.1 km/h 77 % 0.0 mm
20:46 18.8 °C 14.9 °C 1019.9 hPa NW 0.3 km/h 3.2 km/h 78 % 0.0 mm
20:51 18.6 °C 14.9 °C 1018.8 hPa NW 0.2 km/h 3.2 km/h 79 % 0.0 mm
20:56 18.4 °C 14.7 °C 1018.8 hPa Calm     79 % 0.0 mm
21:01 18.3 °C 14.8 °C 1018.8 hPa Calm     80 % 0.0 mm
21:06 18.2 °C 14.5 °C 1018.8 hPa Calm     79 % 0.0 mm
21:11 18.0 °C 14.5 °C 1018.8 hPa NW 0.2 km/h 2.1 km/h 80 % 0.0 mm
21:16 17.9 °C 14.6 °C 1018.8 hPa NW 0.2 km/h 2.1 km/h 81 % 0.0 mm
21:21 17.9 °C 14.6 °C 1019.9 hPa Calm   2.1 km/h 81 % 0.0 mm
21:26 17.7 °C 14.4 °C 1019.9 hPa Calm     81 % 0.0 mm
21:31 17.6 °C 14.5 °C 1019.9 hPa Calm     82 % 0.0 mm
21:36 17.5 °C 14.6 °C 1019.9 hPa Calm     83 % 0.0 mm
21:41 17.5 °C 14.6 °C 1019.9 hPa Calm     83 % 0.0 mm
21:46 17.4 °C 14.5 °C 1019.9 hPa Calm     83 % 0.0 mm
21:51 17.3 °C 14.4 °C 1020.9 hPa Calm     83 % 0.0 mm
21:56 17.2 °C 14.4 °C 1020.9 hPa Calm     84 % 0.0 mm
22:01 17.2 °C 14.4 °C 1020.9 hPa Calm   2.1 km/h 84 % 0.0 mm
22:06 17.1 °C 14.4 °C 1020.9 hPa Calm   2.1 km/h 84 % 0.0 mm
22:12 17.0 °C 14.4 °C 1020.9 hPa Calm   1.4 km/h 85 % 0.0 mm
22:17 17.0 °C 14.4 °C 1020.9 hPa Calm   1.4 km/h 85 % 0.0 mm
22:22 17.0 °C 14.4 °C 1020.9 hPa Calm   1.4 km/h 85 % 0.0 mm
22:27 16.9 °C 14.6 °C 1020.9 hPa Calm     86 % 0.0 mm
22:32 16.8 °C 14.4 °C 1020.9 hPa Calm     86 % 0.0 mm
22:37 16.7 °C 14.3 °C 1021.9 hPa Calm     86 % 0.0 mm
22:42 16.6 °C 14.2 °C 1021.9 hPa Calm     86 % 0.0 mm
22:47 16.6 °C 14.2 °C 1021.9 hPa Calm     86 % 0.0 mm
22:52 16.5 °C 14.2 °C 1020.9 hPa Calm     86 % 0.0 mm
22:57 16.5 °C 14.2 °C 1020.9 hPa Calm     86 % 0.0 mm
23:02 16.3 °C 14.1 °C 1020.9 hPa Calm     87 % 0.0 mm
23:07 16.3 °C 14.1 °C 1021.9 hPa Calm     87 % 0.0 mm
23:12 16.1 °C 13.9 °C 1021.9 hPa Calm     87 % 0.0 mm
23:17 16.1 °C 13.9 °C 1021.9 hPa Calm     87 % 0.0 mm
23:22 16.0 °C 13.8 °C 1021.9 hPa Calm     87 % 0.0 mm
23:27 15.9 °C 13.9 °C 1021.9 hPa Calm     88 % 0.0 mm
23:32 15.9 °C 13.9 °C 1021.9 hPa Calm     88 % 0.0 mm
23:37 15.8 °C 13.8 °C 1021.9 hPa Calm     88 % 0.0 mm
23:42 15.7 °C 13.7 °C 1021.9 hPa Calm     88 % 0.0 mm
23:47 15.6 °C 13.6 °C 1021.9 hPa Calm     88 % 0.0 mm
23:52 15.6 °C 13.6 °C 1021.9 hPa Calm     88 % 0.0 mm
23:57 15.5 °C 13.7 °C 1021.9 hPa Calm     89 % 0.0 mm
Vremenska postaja Senovo
Podatki zbrani iz Weather Underground - 3 mb

Script developed by  Jim McMurry - jmcmurry@mwt.net Adapted for the template by  Wim van der Kuil - Leuven-Template.eu

Vremenski podatki so objavljeni na:

WeatherCloud

Weather Underground

AWEKAS

HAMweather, WeatherForYou, PWS Weather

MapView

Geostik

Slovenia weather network

Oprema, ki se uporablja:

Vremenski program
Cumulus

Cumulus